Dewpoint
41 41 42 43 42 41 41 43 44 45 45 46 46 46 46 46 47 48 48 48 48 47 46 47 48 49 50 51 52 54 55 55 55 55 55 55 55 55 55 55 55 55 55 55 55 56 56 56 56 56 56 56 57 58 58 59 59 60 60 61 61 61 62 62 62 62 62 62 62 61 61 60 59 59 59 59 59 59 59 59 59 59 59 59 59 60
40 40 41 42 42 41 41 43 44 45 45 45 45 45 45 45 46 46 46 46 46 45 44 44 45 46 47 49 51 53 54 55 55 55 55 55 55 55 55 55 55 55 55 55 55 55 55 55 56 56 56 56 56 56 57 58 58 59 59 60 60 61 61 61 61 61 62 61 61 61 60 59 59 58 58 58 59 59 59 59 59 59 59 59 59 59
37 37 38 39 40 40 39 41 42 44 44 44 44 44 44 44 45 45 45 45 45 45 44 44 44 45 46 47 50 51 52 54 54 55 55 55 55 55 55 55 55 55 55 55 55 55 55 55 55 55 55 55 55 55 56 56 57 57 58 59 59 59 60 60 60 60 60 60 60 60 59 59 58 58 58 58 58 58 58 58 58 59 59 59 59 59
35 34 34 36 37 37 37 38 39 41 42 42 42 43 43 44 44 43 44 43 43 43 44 43 43 43 45 46 47 49 50 52 53 54 54 54 54 54 54 54 54 54 54 54 54 55 55 55 55 55 55 55 55 55 55 55 55 56 56 57 57 58 58 59 59 59 59 59 59 58 58 58 57 57 57 58 58 58 58 58 58 58 59 59 59 59
33 32 32 33 33 33 35 36 37 38 39 39 40 40 40 41 41 41 42 42 42 42 42 42 42 42 42 44 46 47 49 50 51 52 52 53 53 53 54 54 54 54 54 54 54 54 54 55 55 55 55 55 55 55 55 55 55 55 55 56 56 57 57 57 58 58 58 57 57 57 57 57 57 57 57 57 57 57 57 57 58 58 59 59 59 59
32 32 32 32 32 32 33 35 36 36 37 37 37 38 38 39 40 41 41 42 42 43 43 43 43 42 42 43 45 46 47 48 49 50 50 51 51 52 52 53 53 53 53 53 53 54 54 54 55 55 55 55 55 55 55 55 55 55 55 55 56 56 56 57 57 57 57 56 56 56 56 56 56 56 56 56 57 57 57 58 58 58 59 59 59 59
32 32 33 33 33 33 34 35 36 36 35 36 36 37 38 39 40 41 42 42 42 43 43 43 43 43 42 43 44 46 47 47 48 48 49 50 50 50 51 52 52 52 52 53 53 53 54 54 54 55 55 55 55 55 55 54 54 54 55 55 55 55 56 56 56 56 56 56 56 56 56 56 56 55 55 56 56 57 57 58 58 58 59 59 59 59
32 33 33 33 33 33 33 33 34 35 34 34 33 34 35 37 38 40 41 42 42 42 42 42 42 42 41 42 43 44 45 45 45 46 47 47 48 50 50 51 51 51 52 52 53 53 54 54 54 55 55 55 55 55 55 54 54 54 54 55 55 55 56 56 56 56 56 56 56 55 55 55 55 55 55 55 55 56 57 58 58 59 59 59 59 59
32 32 32 32 32 31 30 30 31 32 33 32 32 32 32 33 34 36 38 39 40 40 39 39 39 39 39 40 41 42 43 43 43 43 44 44 46 48 50 50 50 51 51 52 53 53 54 54 54 54 55 55 55 55 54 54 54 54 54 54 55 55 55 55 56 56 56 55 55 55 55 55 55 55 55 55 55 55 56 57 58 58 59 59 59 59
32 31 30 31 31 31 30 29 30 32 34 33 33 33 33 32 32 33 34 35 36 37 37 37 37 36 37 39 40 41 41 43 44 45 46 46 47 48 49 50 50 50 51 52 53 53 54 54 54 54 54 54 54 54 54 53 53 53 53 54 54 55 55 55 55 55 55 55 55 55 55 55 55 55 55 55 55 55 55 56 57 58 58 58 59 59
31 30 30 30 31 31 32 30 31 32 35 34 33 33 33 33 33 33 32 33 34 36 36 37 37 37 37 37 39 40 40 41 42 44 47 48 48 49 49 50 50 50 51 52 52 53 53 53 54 54 54 54 54 54 53 53 53 53 53 53 54 54 55 55 55 55 55 55 55 55 55 55 55 55 55 55 55 55 55 55 56 56 57 58 58 59
29 29 30 29 29 29 29 30 31 32 33 32 30 30 30 32 33 33 32 33 33 35 36 37 38 38 38 38 38 39 39 40 41 43 45 46 48 49 50 50 50 50 51 51 52 52 52 53 53 53 53 53 53 53 52 52 52 52 52 53 53 54 54 54 55 55 55 55 55 55 55 55 55 55 55 55 55 55 55 55 55 55 56 57 58 59
29 29 29 28 28 28 28 28 28 28 28 28 27 26 26 28 30 31 31 31 31 32 32 33 35 36 38 39 39 39 39 40 41 41 41 43 44 46 48 49 50 50 50 51 51 51 52 52 52 52 52 52 52 52 52 52 52 52 52 53 53 53 54 54 54 54 55 55 55 55 55 55 55 55 55 55 54 54 54 55 55 55 55 56 57 58
28 28 28 28 28 27 27 27 27 26 25 25 25 26 27 28 28 28 28 28 28 29 30 31 32 33 35 37 38 39 39 39 39 39 39 40 41 41 44 46 48 49 50 50 50 50 51 52 52 52 52 52 52 52 52 52 52 52 52 52 53 53 53 53 54 54 54 54 54 54 54 54 54 54 54 54 54 54 54 54 54 55 55 56 57 58
28 28 28 27 27 27 27 27 26 25 25 25 26 27 28 28 28 28 27 27 28 29 30 31 32 32 34 36 37 38 39 39 38 38 38 39 40 40 41 43 45 47 48 49 49 50 50 51 52 52 52 52 52 52 52 52 52 52 52 52 52 53 53 53 53 53 53 54 54 54 54 54 54 54 54 54 54 54 54 54 54 54 55 55 56 57
28 28 28 27 27 26 26 26 26 25 25 26 26 27 27 27 27 27 27 27 28 29 30 30 30 31 31 34 36 38 39 39 38 38 39 39 40 41 40 41 43 45 47 48 49 49 50 50 51 52 52 52 51 51 51 52 52 52 52 52 52 52 52 52 53 53 53 53 53 53 53 53 53 53 53 53 53 53 53 53 53 54 54 55 55 56
29 28 28 27 26 26 25 25 25 25 26 26 27 27 28 27 27 28 28 28 28 29 29 29 29 28 28 30 32 35 37 37 37 38 40 41 42 43 44 43 42 43 44 46 47 49 49 50 50 51 52 51 51 51 51 51 52 52 52 52 52 52 52 52 52 52 53 53 53 53 53 53 53 53 53 53 53 53 53 53 53 53 54 54 54 55
30 29 28 28 27 26 25 25 25 26 27 26 27 27 28 28 28 29 29 29 28 28 28 28 29 28 28 27 28 31 35 34 35 37 39 40 41 43 45 44 43 42 42 44 46 47 49 49 50 50 51 51 51 51 51 51 51 51 51 51 51 51 51 52 52 52 52 52 52 53 53 52 52 52 52 52 52 52 52 53 53 53 53 54 54 54
30 29 28 28 27 27 26 26 26 26 26 26 27 28 28 29 29 29 29 29 29 28 28 28 28 28 28 28 28 30 33 33 35 36 37 37 38 40 42 43 42 42 42 43 44 46 48 49 49 50 50 50 50 51 51 51 51 51 51 51 51 51 51 51 51 52 52 52 52 52 52 52 52 52 52 52 52 52 52 52 53 53 53 53 54 54
29 29 28 28 28 28 28 28 28 27 27 28 28 28 28 29 29 29 29 29 29 29 29 28 28 28 28 28 28 29 32 33 34 35 36 36 37 38 40 41 42 42 42 43 44 44 46 46 48 49 49 50 50 50 51 51 51 51 51 51 51 51 51 51 51 51 52 52 52 52 52 52 52 52 51 51 51 52 52 52 52 52 53 53 53 53
30 29 28 28 28 28 28 28 28 28 28 29 30 30 30 30 30 30 30 29 29 29 28 28 28 28 28 27 27 28 31 32 32 33 34 34 35 36 37 38 39 40 41 42 43 44 45 45 46 48 49 49 50 50 50 51 51 51 51 51 51 51 51 51 51 51 51 51 51 51 51 51 51 51 51 51 51 51 51 52 52 52 52 53 53 53
32 31 30 30 29 29 29 29 29 30 31 32 32 32 31 31 31 30 30 29 29 29 28 28 29 29 29 29 29 30 32 32 32 32 32 32 32 33 35 36 37 37 37 39 41 43 45 45 46 47 48 49 49 50 50 50 50 51 51 51 51 51 51 51 51 51 51 51 51 51 51 51 51 51 51 51 51 51 51 51 52 52 52 52 53 53
34 33 33 33 33 32 32 32 32 33 34 35 35 35 34 35 34 34 34 34 34 34 35 35 35 36 36 35 35 34 35 34 33 33 32 32 32 32 33 34 34 34 35 36 38 41 43 44 45 46 47 48 48 49 49 50 50 50 50 51 51 51 51 50 51 51 51 51 51 51 51 51 51 51 51 50 50 50 51 51 51 51 52 52 52 53
34 34 34 34 35 35 35 35 36 36 37 37 37 37 37 37 38 38 38 38 38 38 38 38 38 37 37 37 37 37 37 37 36 36 34 33 33 32 33 33 33 33 33 34 36 38 41 42 44 45 46 46 47 48 48 49 49 50 50 50 50 50 50 50 50 50 50 51 51 51 51 51 51 50 50 50 50 50 50 50 51 51 51 52 52 52
32 32 32 32 33 34 34 34 34 35 35 35 35 36 36 36 37 37 37 37 36 35 35 34 33 32 32 34 35 36 37 38 38 38 37 36 35 34 34 34 33 33 33 34 35 37 39 41 43 44 45 46 46 47 47 48 48 49 49 50 50 50 50 50 50 50 50 50 50 51 51 50 50 50 50 50 50 50 50 50 50 51 51 51 51 51
33 33 32 32 33 34 34 34 34 34 34 34 33 33 33 34 34 34 34 34 33 33 32 31 30 30 30 30 31 32 33 35 37 38 38 37 37 36 35 35 35 34 34 35 37 38 40 41 43 44 45 45 46 46 47 47 47 48 48 49 49 50 50 50 50 50 50 50 50 50 50 50 50 50 50 50 50 50 50 50 50 50 50 50 51 51
34 34 34 34 34 34 35 35 35 36 36 36 35 34 34 34 34 34 33 33 33 32 31 30 29 29 28 28 28 28 28 30 32 34 37 38 37 37 36 37 36 36 36 36 38 40 41 42 44 45 46 46 46 46 47 47 47 47 48 48 49 49 50 50 50 50 50 50 50 50 50 50 50 50 50 50 50 50 50 50 50 50 50 50 51 51
33 34 34 34 34 34 35 35 35 35 36 36 36 36 36 35 34 33 32 33 33 32 31 30 29 28 28 28 27 27 27 28 28 31 34 37 37 36 37 37 37 37 35 36 37 39 41 42 44 45 46 46 46 47 47 47 46 47 47 47 48 48 49 49 50 50 50 50 50 50 50 50 50 50 50 50 50 50 50 50 50 50 50 51 51 51
32 32 33 33 33 34 34 34 35 35 36 37 37 37 37 36 35 34 33 33 33 32 31 30 30 29 29 28 28 28 28 27 28 28 31 32 33 34 35 36 36 36 35 34 35 36 38 40 41 42 43 44 45 46 46 46 46 46 46 47 47 48 48 49 49 49 50 50 50 50 50 50 50 50 50 50 50 50 50 50 50 50 51 51 51 51
30 30 31 32 33 33 34 34 35 35 36 37 37 37 36 36 35 35 34 34 33 33 32 31 31 31 31 30 29 28 28 27 28 28 29 29 30 31 32 34 35 35 35 35 34 33 34 35 37 38 40 41 42 43 44 45 45 46 46 46 46 47 47 47 48 48 49 49 50 50 50 50 50 50 50 50 50 50 50 50 50 51 51 51 50 50
30 31 31 32 33 34 34 34 33 33 33 34 34 33 33 33 33 33 34 34 34 34 33 32 32 32 31 30 28 27 26 26 27 28 28 28 28 30 33 34 35 36 37 37 36 33 32 33 34 35 37 39 40 41 42 43 44 45 45 46 46 46 46 46 47 47 48 49 49 50 50 50 50 50 50 50 50 50 50 50 50 51 50 50 49 49
34 35 35 33 32 32 31 30 29 29 29 30 30 30 31 31 31 32 32 33 33 33 33 33 32 32 31 30 29 28 26 26 27 28 28 28 28 31 35 36 37 37 39 39 38 36 35 34 34 34 35 37 38 40 41 42 43 44 45 45 45 45 46 46 46 47 48 48 49 49 50 50 50 50 50 50 50 50 50 50 50 50 50 48 48 47
33 32 31 30 29 28 28 28 28 28 28 28 29 29 30 30 31 31 31 32 32 32 32 32 32 32 32 31 30 30 29 28 29 30 31 31 31 32 35 36 37 37 39 39 39 38 37 37 36 36 35 36 38 40 41 42 43 44 45 45 45 45 45 46 46 47 47 48 49 49 50 49 50 50 50 50 50 50 50 50 50 49 49 47 47 46
28 28 28 27 27 27 27 27 28 28 29 29 29 30 30 30 30 30 30 30 31 31 32 32 32 32 32 32 32 32 32 32 32 33 34 34 34 35 36 36 36 36 37 37 38 38 38 38 38 37 37 37 38 40 41 42 43 44 44 45 45 45 45 46 46 47 47 48 49 49 50 50 50 50 50 50 50 49 50 49 49 49 48 47 46 46
27 27 27 26 26 26 27 27 28 28 28 29 29 29 29 29 29 29 30 30 30 31 31 32 32 33 33 33 32 32 32 32 32 34 34 36 36 36 36 36 36 36 36 36 37 37 37 38 38 38 38 39 39 40 41 41 41 42 43 44 44 45 45 46 46 47 48 48 49 49 49 50 50 50 50 50 49 49 49 49 49 48 47 47 46 46
27 27 27 26 26 26 26 27 28 29 29 29 29 30 30 30 31 31 32 32 32 31 31 32 32 32 33 33 32 32 32 31 31 32 32 34 35 36 36 36 37 37 37 36 37 37 37 37 37 38 38 38 38 39 40 39 39 40 41 41 43 44 45 46 47 47 47 48 48 48 49 49 49 50 50 49 49 49 49 49 48 48 47 47 46 46
27 27 28 29 30 31 31 32 33 33 33 32 32 32 31 32 32 32 33 33 33 32 32 32 32 32 32 32 32 32 31 31 31 31 32 33 34 35 36 36 37 37 37 37 36 36 36 36 37 37 37 37 38 38 39 38 38 38 38 40 41 42 43 45 46 47 47 47 48 48 48 48 49 49 49 49 49 48 49 48 48 47 47 46 46 46
29 30 31 32 32 32 32 32 32 31 30 29 29 29 29 30 30 31 31 32 32 31 31 30 30 31 32 33 33 33 33 33 33 34 34 34 35 35 36 36 37 37 38 37 37 36 36 36 35 36 36 37 38 38 39 38 37 37 38 39 40 41 42 44 45 46 47 47 47 47 47 48 48 48 48 48 48 48 48 48 47 47 46 46 46 46
30 29 29 28 28 27 25 25 24 24 25 25 26 26 27 28 28 28 29 29 30 30 31 30 30 31 32 32 33 34 35 34 34 34 34 34 35 36 36 36 37 37 37 37 37 37 36 35 35 35 36 36 37 38 39 38 38 37 38 39 40 41 41 43 44 45 46 46 46 46 46 46 46 46 47 47 47 47 46 46 46 46 46 46 46 46
25 24 24 24 23 23 23 23 24 24 25 26 26 27 26 26 27 27 28 28 29 30 31 31 31 32 32 33 33 34 34 35 35 35 35 34 35 36 37 37 37 37 37 36 36 36 36 36 36 36 36 36 37 37 38 39 38 38 38 38 38 39 41 41 43 44 45 46 46 46 45 45 45 45 46 46 46 46 45 45 45 45 45 44 44 44
22 22 22 23 23 24 24 25 25 25 26 26 26 27 27 26 26 26 27 28 29 30 31 32 33 33 34 34 34 34 35 35 36 36 36 35 35 36 37 37 37 36 36 35 35 35 36 36 36 37 37 37 37 38 38 39 39 39 39 38 38 39 40 41 41 42 44 44 45 45 44 44 44 45 45 45 45 45 45 44 44 44 44 44 43 43
23 22 22 23 23 24 24 25 26 27 28 30 31 31 31 31 32 32 31 31 32 32 32 33 34 35 35 36 36 36 36 37 37 37 36 35 35 36 37 37 36 36 35 35 35 35 35 36 36 37 37 37 37 37 37 38 39 39 39 39 39 39 40 40 40 41 42 43 43 44 44 43 43 44 44 44 44 44 44 43 43 43 43 43 43 43
23 23 23 24 24 25 26 27 28 28 29 30 31 32 33 34 34 34 34 34 34 34 34 35 35 34 34 34 35 35 36 36 36 36 36 36 35 35 36 36 36 35 35 35 35 35 35 36 37 37 37 37 37 37 37 37 38 39 39 39 39 39 37 38 38 39 40 41 41 42 42 42 43 43 43 43 42 42 42 43 43 43 43 43 43 43
24 24 25 25 26 26 27 27 28 28 28 28 28 29 30 31 32 33 33 34 34 34 34 34 34 34 33 32 32 32 32 32 33 33 34 36 36 36 37 36 36 37 37 36 36 36 36 36 37 37 38 38 37 37 37 37 37 37 38 39 39 39 37 37 38 39 39 40 41 41 41 42 42 42 42 41 41 41 41 41 41 42 42 42 42 42
25 25 25 25 26 26 26 26 26 26 26 26 27 27 27 28 29 30 31 32 32 33 32 33 32 32 31 31 30 30 29 29 30 31 32 34 35 37 37 37 37 37 37 37 37 37 36 36 36 37 37 38 38 37 37 37 37 37 38 39 40 39 38 38 38 39 39 39 39 40 40 41 41 40 40 39 39 39 40 40 41 41 41 41 42 42
24 24 25 25 25 25 26 26 26 26 26 27 27 27 27 28 28 29 30 31 32 32 32 32 32 31 30 29 29 29 29 29 29 30 31 32 34 36 37 37 38 38 38 38 38 38 38 37 37 37 37 37 37 38 38 38 37 37 37 38 39 39 39 38 38 38 39 39 39 39 40 40 40 39 38 38 38 38 39 40 40 40 40 41 41 41
24 24 24 24 24 25 25 26 27 27 28 28 28 28 28 29 29 30 30 31 32 32 32 33 32 32 30 30 30 29 29 29 30 30 31 31 32 34 36 37 38 39 39 39 39 39 39 38 38 38 37 37 36 37 37 38 38 38 37 38 38 38 38 37 38 38 38 38 39 39 39 39 39 38 37 37 37 37 38 38 39 39 40 40 40 41
24 24 24 24 24 24 25 25 26 26 27 28 28 29 30 30 31 31 31 32 32 32 32 32 32 31 31 31 31 31 31 31 31 30 31 30 31 32 34 36 38 39 39 39 39 39 40 39 39 39 38 37 37 36 37 37 38 38 38 38 38 37 37 37 37 38 38 38 38 38 39 39 38 37 37 37 36 36 37 37 37 38 39 40 40 40
24 24 24 23 23 23 23 23 23 23 24 25 26 27 28 29 31 32 31 31 32 32 31 31 31 30 30 31 32 32 33 33 32 32 31 31 31 32 33 36 37 38 38 38 38 39 39 40 40 40 40 39 38 37 36 37 37 38 38 38 38 37 37 37 37 38 38 38 37 37 38 38 38 37 37 36 35 35 35 35 36 37 38 39 40 40
23 23 23 23 23 23 23 23 23 23 23 23 23 24 25 26 28 29 30 31 31 31 31 30 30 30 30 30 31 32 32 33 33 33 32 32 32 33 34 36 37 36 36 36 37 37 37 37 38 39 41 41 40 38 37 37 37 37 38 38 37 37 37 37 37 37 38 38 37 37 37 38 38 37 37 35 34 34 34 34 35 36 37 38 39 40
23 23 23 23 23 22 22 22 23 23 23 23 23 24 24 25 26 27 28 29 29 30 30 30 30 30 30 30 31 31 32 32 32 33 33 33 34 35 36 36 36 35 34 34 34 34 34 34 35 36 38 40 40 40 39 38 37 37 37 37 37 37 37 36 37 37 37 37 37 37 37 37 37 37 37 35 34 33 33 33 34 34 36 37 38 39